Погода в Петрокрепости

Погода в Петрокрепости : погода сейчас, прогноз погоды и архив. Всё, что Вы хотите узнать о погоде в Петрокрепости!

Хотите узнать прогноз погоды в Петрокрепости? Тогда Вам сюда: Погода в Петрокрепости

Поиск расширенной информации на нашем сайте:

Другие новости

Новости СМИ2

Главная страница сайта

Новости сайта

03.07.2017

Напоминаем, что на нашем специализированном сайте Метеоцентр.Азия вы можете получить высокодетализированные автоматические прогнозы погоды по пунктам России, СНГ и мира в авиационном формате (включающие направление и скорость ветра, видимость, явления погоды, количество и форму облачности, нижнюю и верхнюю границу облачности).


Погода в Петрокрепости - сегодня

Время (UTC), дата Ветер
(°,м/с) 
Видим.   Явления Облачность Т
(°С)
Тd
(°С)
f(%) Тe
(°С)
Pmin
(гПа)
dP
(гПа)
Po
(мм)
O2
(г/м3)
Тmin Tmax R s Состояние
почвы
21 09.02.18 тихо ()   20000 м    6/0 средняя 
[Ac trans]
-7.5 -7.5 100 -8  1024.5  0.2  767  319           
00 10.02.18 тихо ()   20000 м    10/0 средняя 
[Ac und]
-8.2 -8.4 98 -8  1024.6  767  319           
09 10.02.18 тихо ()   20000 м    10/3 600 м средняя 
[Sc|Ac und]
-4.5 -4.8 98 -5  1022.9  -0.5  766  314           
03 11.02.18 тихо ()   10 км  слаб. снег  10/10 540 м 
[Sc]
-5.6 -6 97 -6  1017.8  -0.8  762  314  -5.6    0.5     
09 11.02.18 110 (В) 20000 м    10/10 600 м 
[Sc]
-4.2 -5.7 89 -4  1017  -0.2  761  312           
21 11.02.18 130 (ЮВ) 20000 м    10/10 400 м 
[St]
-3.1 -4.1 93 -3  1014.4  -0.3  759  310           
00 12.02.18 130 (ЮВ) 20000 м    10/0 средняя 
[Ac und]
-3.1 -4.2 92 -3  1014.2  -0.3  759  310           
03 12.02.18 150 (ЮВ) 4000 м  слаб. снег  10/8 660 м средняя 
[Sc|As op]
-2.7 -4 91 -4  1014.3  0.2  759  309  -3.8    0.2     
21 12.02.18 170 (Ю) 20000 м    10/10 840 м 
[Sc]
-0.9 -3.7 81 -2  1018.2  762  309           
15 13.02.18 150 (ЮВ) 20000 м    8/0 средняя 
[Ac trans]
-2.6 -7.5 69 -2  1021.8  0.8  765  312      0.0     
21 13.02.18 150 (ЮВ) 20000 м    10/0 средняя 
[Ac und]
-4.9 -9.1 72 -4  1024.1  0.9  767  315           
00 14.02.18 150 (ЮВ) 20000 м    10/0 средняя 
[Ac und]
-5.5 -8.2 81 -5  1024.6  0.5  767  316           
09 14.02.18 140 (ЮВ) 20000 м    6/0 верхняя 
[Cc]
-6.8 -9.6 80 -8  1028.7  1.5  770  319           
12 14.02.18 140 (ЮВ) 20000 м    8/0 верхняя 
[Cc]
-2.5 -8.7 62 -2  1029.1  0.4  770  314           
15 14.02.18 тихо ()   20000 м    4/0 средняя 
[Ac lent]
-5.8 -9.6 74 -6  1029.8  0.7  771  318           
18 14.02.18 тихо ()   20000 м    ясно 
-9.7 -10.8 92 -10  1030.9  1.1  772  323    -2.4       
21 14.02.18 тихо ()   20000 м    ясно 
-11.3 -12.1 94 -11  1031.8  0.9  772  326           
00 15.02.18 тихо ()   20000 м    ясно 
-12.6 -13.4 94 -13  1032.1  0.2  772  328           
09 15.02.18 150 (ЮВ) 20000 м    ясно 
-9.2 -10.1 93 -9  1033  0.3  773  323           
12 15.02.18 тихо ()   20000 м    8/0 верхняя 
[Ci]
-6.7 -10.3 75 -7  1032.4  -0.6  773  320           
15 15.02.18 тихо ()   20000 м    9/0 средняя 
[Ac und]
-9 -11 85 -9  1031.6  -0.8  772  323           
21 15.02.18 тихо ()   4000 м  слаб. снег  10/0 средняя 
[As op]
-8.1 -9.4 90 -8  1029.9  -1.3  771  321           
03 16.02.18 140 (ЮВ) 4000 м  слаб. снег  10/10 630 м 
[Ns]
-7.6 -8.3 95 -7  1027.2  -1.4  769  320  -9       
21 16.02.18 040 (СВ) 20000 м    10/10 720 м 
[Sc]
-5.7 -6.9 91 -5  1025  -0.5  767  316           
09 17.02.18 040 (СВ) 10 км  слаб. снег  10/0 средняя 
[As op]
-5.5 -7.1 88 -5  1021.9  -0.7  765  315           
Время (UTC), дата Ветер
(°,м/с) 
Видим.   Явления Облачность Т
(°С)
Тd
(°С)
f(%) Тe
(°С)
Pmin
(гПа)
dP
(гПа)
Po
(мм)
O2
(г/м3)
Тmin Tmax R s Состояние
почвы

Для получения пояснительной информации подведите курсор к названию столбца.

ПОГОДА в Петрокрепости - архив

Всё, что Вы хотите узнать о погоде в Петрокрепости - удобно и подробно!

Выберите нужную дату (начиная с 1 января 2015* года) и нажмите кнопку "Найти".
Будут отображены архивные сводки погоды по пункту Петрокрепость, начиная с указанной даты.


Отображать данные в формате CSV (для использования в таблицах Excel)


Внимание! Наш архив погоды предназначен исключительно для личного некоммерческого использования в познавательных целях. Если Вам необходимы официальные справки о состоянии погоды (для производственных, юридических, коммерческих и т.п. целей), обращайтесь в органы Росгидромета.

*Примечание: данная дата относится к архиву по метеостанциям СССР (Россия, СНГ, Балтия).
Архив по метеостанциям Зарубежной Европы и Азии (кроме Китая) хранится 10 дней, по другим регионам земного шара (Китай, Африка, Америка, Австралия, Океания) - 1 день.

Петрокрепость - район местоположения метеостанции


Название, широта, долгота, высота метеостанции:
Петрокрепость 59.9°ш. 31°д. 17 м над ур. моря [Российская Федерация]

Дополнительная информация

В oтличие oт бoльшинства пoгoдных сайтoв мы публикуем пoдрoбную метеoинфoрмацию в детальнoм прoфессиoнальнoм фoрмате.

Характеристики температуры и влажнoсти вoздуха измеряются на высoте 2 м в тени вдали oт зданий и деревьев.
Скoрoсть ветра измеряется на высoте 10 м (на урoвне рoста челoвека скoрoсть ветра ниже в 1.5-2 раза). Если метеoстанция нахoдится в гoрoде или в лесу, тo скoрoсть ветра занижена на 2-4 м/с пo сравнению с oткрытым местoм. Скoрoсть ветра над акватoриями крупных рек и oзёр, а также на вершинах хoлмoв на 2-5 м/с выше, чем в oбычных услoвиях.
Атмoсфернoе давление в разных тoчках местнoсти мoжет значительнo oтличаться oт давления на метеoстанции, в зависимoсти oт услoвий рельефа (при пoдъёме на 10 м давление пoнижается примернo на 1 мм рт.ст.).